Weather History for Odessa, TX

Change the Weather History Date:

Friday, May 3, 2013

  Actual Average (KMAF) Record (KMAF)
Temperature  
Mean Temperature 48 °F 70 °F  
Max Temperature 66 °F 84 °F 98 °F (1947)
Min Temperature 33 °F 55 °F 32 °F (2013)
Degree Days  
Heating Degree Days 16    
Cooling Degree Days 0 6  
Month to date cooling degree days 17  
Year to date cooling degree days 125  
Moisture  
Dew Point 16 °F    
Average Humidity 30    
Maximum Humidity 57    
Minimum Humidity 13    
Precipitation  
Precipitation 0.00 in 0.03 in 1.45 in (1941)
Month to date precipitation 0.09  
Year to date precipitation 2.61  
Sea Level Pressure  
Sea Level Pressure 30.26 in    
Wind  
Wind Speed 6 mph (WNW)    
Max Wind Speed 12 mph    
Max Gust Speed -    
Visibility 10 miles    
Events      
T = Trace of Precipitation, MM = Missing Value Source: NWS Daily Summary

Daily Weather History Graph

Daily Weather History Graph

Search for Another Location

Airport:

Trip Planner

Search our weather history database for the weather conditions in past years. The results will help you decide how hot, cold, wet, or windy it might be!

Date:

Astronomy

May. 03, 2013 Rise Set
Actual Time 7:01 AM CDT 8:31 PM CDT
Civil Twilight 6:35 AM CDT 8:57 PM CDT
Nautical Twilight 6:04 AM CDT 9:29 PM CDT
Astronomical Twilight 5:31 AM CDT 10:01 PM CDT
Moon 3:04 AM CDT (5/3) 2:49 PM CDT (5/3)
Length of Visible Light 14h 22m
Length of Day
13h 29m
Last Quarter, 37% of the Moon is Illuminated
May 3
Last Quarter
May 9
New
May 17
First Quarter
May 24
Full
May 31
Last Quarter

Hourly Weather History & Observations

Time (CDT) Temp. Windchill Dew Point Humidity Pressure Visibility Wind Dir Wind Speed Gust Speed Precip Events Conditions
12:53 AM 41.0 °F 37.1 °F 21.9 °F 47% 30.47 in 10.0 mi North 5.8 mph - N/A   Clear
1:53 AM 39.9 °F 33.9 °F 21.9 °F 49% 30.46 in 10.0 mi North 9.2 mph - N/A   Clear
2:53 AM 39.0 °F 34.8 °F 21.0 °F 49% 30.44 in 10.0 mi North 5.8 mph - N/A   Clear
3:53 AM 35.1 °F 32.2 °F 21.0 °F 57% 30.44 in 10.0 mi WNW 3.5 mph - N/A   Clear
4:53 AM 34.0 °F 28.8 °F 19.9 °F 56% 30.44 in 10.0 mi NW 5.8 mph - N/A   Clear
5:53 AM 34.0 °F 28.0 °F 19.9 °F 56% 30.43 in 10.0 mi NW 6.9 mph - N/A   Clear
6:53 AM 33.1 °F 27.7 °F 19.0 °F 56% 30.43 in 10.0 mi NW 5.8 mph - N/A   Clear
7:53 AM 36.0 °F 31.1 °F 19.9 °F 52% 30.43 in 10.0 mi NW 5.8 mph - N/A   Clear
8:53 AM 44.1 °F 40.8 °F 19.9 °F 38% 30.42 in 10.0 mi WNW 5.8 mph - N/A   Clear
9:53 AM 48.0 °F - 17.1 °F 29% 30.39 in 10.0 mi WNW 3.5 mph - N/A   Clear
10:53 AM 51.1 °F - 12.0 °F 21% 30.36 in 10.0 mi Variable 3.5 mph - N/A   Clear
11:53 AM 55.0 °F - 8.1 °F 15% 30.34 in 10.0 mi NW 5.8 mph - N/A   Clear
12:53 PM 57.0 °F - 12.0 °F 17% 30.30 in 10.0 mi NW 8.1 mph - N/A   Clear
1:53 PM 59.0 °F - 12.9 °F 16% 30.25 in 10.0 mi Variable 5.8 mph - N/A   Clear
2:53 PM 60.1 °F - 12.9 °F 16% 30.19 in 10.0 mi Variable 3.5 mph - N/A   Clear
3:53 PM 64.0 °F - 12.0 °F 13% 30.15 in 10.0 mi NW 11.5 mph - N/A   Clear
4:53 PM 64.0 °F - 12.0 °F 13% 30.11 in 10.0 mi Variable 6.9 mph - N/A   Clear
5:53 PM 64.9 °F - 12.0 °F 13% 30.07 in 10.0 mi WSW 8.1 mph - N/A   Clear
6:53 PM 64.9 °F - 12.9 °F 13% 30.05 in 10.0 mi SSW 5.8 mph - N/A   Clear
7:53 PM 64.0 °F - 12.9 °F 14% 30.04 in 10.0 mi WSW 8.1 mph - N/A   Clear
8:53 PM 61.0 °F - 15.1 °F 17% 30.04 in 10.0 mi SSW 3.5 mph - N/A   Clear
9:53 PM 59.0 °F - 16.0 °F 19% 30.04 in 10.0 mi South 3.5 mph - N/A   Clear
10:53 PM 55.0 °F - 16.0 °F 22% 30.04 in 10.0 mi South 3.5 mph - N/A   Clear
11:53 PM 54.0 °F - 18.0 °F 24% 30.01 in 10.0 mi South 5.8 mph - N/A   Clear